{"data":{"norad_id":47910,"intl_designator":"2021-021BC","name":"STARLINK-2370","alt_names":[],"object_type":"PAYLOAD","status":"ACTIVE","operator":null,"country":"US","launch_date":"2021-03-14","launch_site_code":"AFETR","launch_vehicle":null,"mission":null,"orbit_class":"UNKNOWN","rcs_meters":null,"size_class":null,"mass_kg":null,"dimensions":null,"purposes":["comms"],"wikipedia_slug":null,"has_3d_model":false,"image_url":null,"decayed_at":null,"tle_current":{"epoch":"2026-05-24T20:18:25.229376Z","epoch_age_seconds":91618,"freshness":"FRESH","line1":"1 47910U 21021BC  26144.84612534  .00003196  00000+0  11463-3 0  9993","line2":"2 47910  53.1584 273.9203 0001091  80.5176 279.5949 15.31721879287920","mean_motion":15.31721879,"eccentricity":0.0001091,"inclination_deg":53.1584,"raan_deg":273.9203,"arg_perigee_deg":80.5176,"mean_anomaly_deg":279.5949,"bstar":0.00011463,"rev_number":28792,"period_min":94.01184508379,"perigee_km":469.92757047673,"apogee_km":471.42198120622,"semimajor_km":6848.8117758415,"source":"CELESTRAK","updated_at":"2026-05-25T13:38:16.637116Z"}}}